• Join FlightAware (Why Join?)
  • Login
  • US Flag 
01:38AM EST


 

Airport Tracker/Info


-or-


 

Live Flight TrackerFlight Track Log ✈ UPS1325 ✈ 01-Nov-2013 ✈ KMCO - KSDF

Flight Track Log - Related Links

Times and Time Zones

All times are in EDT time to prevent confusion due to time zone crossing. See the UPS1325 flight status page for this flight to view local times or setup timezone preferences in your user account.

Time Position Orientation Groundspeed Altitude Reporting Facility
EDT Latitude Longitude Course Direction KTS MPH feet Rate Location/Type
10:20PM 28.4110 -81.3290 194° South 185 213 1,500  Level FlightAware
10:21PM 28.3860 -81.3390 199° South 225 259 2,600 3,709 Climbing FlightAware
10:21PM 28.3590 -81.3520 203° Southwest 221 254 4,900 4,355 Climbing FlightAware
10:22PM 28.3270 -81.3680 204° Southwest 225 259 7,100 3,556 Climbing FlightAware
10:22PM 28.3170 -81.3880 240° Southwest 233 268 8,100 2,727 Climbing FlightAware
10:23PM 28.3390 -81.4220 306° West 278 320 9,600 2,586 Climbing FlightAware
10:23PM 28.3720 -81.4280 351° North 314 361 10,600 1,667 Climbing FlightAware
10:24PM 28.4510 -81.4350 356° North 396 456 11,600 2,081 Climbing FlightAware
10:25PM 28.6036 -81.4495 355° North 453 521 14,900 2,737 Climbing FlightAware ADS-B
10:26PM 28.6840 -81.4586 354° North 477 549 16,800 2,797 Climbing FlightAware ADS-B
10:27PM 28.8966 -81.5164 347° North 504 580 21,100 2,758 Climbing FlightAware ADS-B
10:28PM 28.9674 -81.5374 345° North 510 587 22,500 2,242 Climbing FlightAware ADS-B
10:29PM 29.1090 -81.5779 346° North 535 616 24,500 2,374 Climbing FlightAware ADS-B
10:29PM 29.1812 -81.5973 347° North 531 611 26,100 3,639 Climbing FlightAware ADS-B
10:30PM 29.2500 -81.6132 349° North 512 589 28,200 3,042 Climbing FlightAware ADS-B
10:31PM 29.3435 -81.6427 345° North 516 594 29,700 2,366 Climbing FlightAware ADS-B
10:31PM 29.4187 -81.6665 345° North 514 592 31,000 2,754 Climbing FlightAware ADS-B
10:32PM 29.4827 -81.6870 344° North 504 580 32,500 2,873 Climbing FlightAware ADS-B
10:32PM 29.5770 -81.7172 344° North 494 568 34,400 2,452 Climbing FlightAware ADS-B
10:34PM 29.7373 -81.7688 344° North 476 548 37,200 2,037 Climbing FlightAware ADS-B
10:34PM 29.8088 -81.7918 344° North 475 547 38,100 1,292 Climbing FlightAware ADS-B
10:35PM 29.8666 -81.8104 344° North 477 549 38,600 761 Climbing FlightAware ADS-B
10:35PM 29.9567 -81.8395 344° North 479 551 39,000 258 Climbing FlightAware ADS-B
10:36PM 30.0730 -81.8770 344° North 477 549 39,000  Level FlightAware
10:37PM 30.1740 -81.9090 345° North 476 548 39,000  Level FlightAware
10:38PM 30.2780 -81.9430 344° North 472 543 39,000  Level FlightAware
10:39PM 30.3870 -81.9790 344° North 464 534 39,000  Level FlightAware
10:39PM 30.4870 -82.0110 345° North 466 536 39,000  Level FlightAware
10:40PM 30.6110 -82.0520 344° North 464 534 39,000  Level FlightAware
10:41PM 30.6930 -82.0790 344° North 464 534 39,000  Level FlightAware
10:42PM 30.7990 -82.1140 344° North 465 535 39,000  Level FlightAware
10:43PM 30.8940 -82.1450 344° North 470 541 39,000  Level FlightAware
10:44PM 31.0160 -82.1850 344° North 472 543 39,000 303 Level FlightAware
10:45PM 31.1450 -82.2280 344° North 478 550 39,600 729 Climbing FlightAware
10:45PM 31.2410 -82.2590 345° North 477 549 40,300 757 Climbing FlightAware
10:47PM 31.3780 -82.3040 344° North 469 540 41,000 420 Climbing FlightAware
10:47PM 31.4480 -82.3280 344° North 470 541 41,000  Level FlightAware
10:48PM 31.5250 -82.3540 344° North 474 545 41,000  Level FlightAware
10:48PM 31.5990 -82.3790 344° North 478 550 41,000  Level FlightAware
10:49PM 31.6690 -82.4020 344° North 476 548 41,000  Level FlightAware
10:50PM 31.7850 -82.4410 344° North 478 550 41,000  Level FlightAware
10:50PM 31.8720 -82.4710 344° North 479 551 41,000  Level FlightAware
10:51PM 32.0000 -82.5130 344° North 479 551 41,000  Level FlightAware
10:52PM 32.1120 -82.5510 344° North 476 548 41,000  Level FlightAware
10:53PM 32.2200 -82.5880 344° North 475 547 41,000  Level FlightAware
10:54PM 32.3310 -82.6250 344° North 475 547 41,000  Level FlightAware
10:55PM 32.4380 -82.6620 344° North 476 548 41,000  Level FlightAware
10:56PM 32.5620 -82.7040 344° North 479 551 41,000  Level FlightAware
10:56PM 32.6190 -82.7240 344° North 480 552 41,000 75 Level FlightAware
10:57PM 32.7350 -82.7630 344° North 481 554 41,100 71 Climbing FlightAware
10:58PM 32.7950 -82.7840 344° North 481 554 41,100  Level FlightAware
10:59PM 32.9030 -82.8210 344° North 480 552 41,100 -57 Level FlightAware
10:59PM 33.0210 -82.8620 344° North 478 550 41,000 -75 Descending FlightAware
11:00PM 33.0720 -82.8800 344° North 477 549 41,000  Level FlightAware
11:00PM 33.1390 -82.9030 344° North 477 549 41,000  Level FlightAware
11:01PM 33.2180 -82.9300 344° North 476 548 41,000  Level FlightAware
11:02PM 33.2940 -82.9560 344° North 475 547 41,000  Level FlightAware
11:02PM 33.4040 -82.9950 344° North 475 547 41,000  Level FlightAware
11:03PM 33.5050 -83.0300 344° North 476 548 41,000  Level FlightAware
11:04PM 33.5940 -83.0610 344° North 478 550 41,000  Level FlightAware
11:04PM 33.6450 -83.0790 344° North 479 551 41,000  Level FlightAware
11:05PM 33.7150 -83.1040 343° North 482 555 41,000 72 Level FlightAware
11:06PM 33.8220 -83.1410 344° North 484 557 41,100 71 Climbing FlightAware
11:06PM 33.8950 -83.1670 344° North 484 557 41,100  Level FlightAware
11:07PM 33.9660 -83.1920 344° North 483 556 41,100 -65 Level FlightAware
11:08PM 34.0930 -83.2370 344° North 479 551 41,000 -68 Descending FlightAware
11:08PM 34.1550 -83.2590 344° North 477 549 41,000  Level FlightAware
11:09PM 34.2750 -83.3020 344° North 474 545 41,000  Level FlightAware
11:10PM 34.3750 -83.3380 343° North 472 543 41,000  Level FlightAware
11:11PM 34.4870 -83.3770 344° North 470 541 41,000  Level FlightAware
11:12PM 34.6000 -83.4180 343° North 469 540 41,000  Level FlightAware
11:13PM 34.6895 -83.4503 343° North 471 542 41,000  Level FlightAware ADS-B
11:14PM 34.8232 -83.4986 343° North 478 550 41,000  Level FlightAware ADS-B
11:14PM 34.8969 -83.5252 344° North 481 554 41,000 82 Level FlightAware ADS-B
11:15PM 34.9786 -83.5547 344° North 483 556 41,100 86 Climbing FlightAware ADS-B
11:15PM 35.0466 -83.5793 344° North 486 559 41,100  Level FlightAware ADS-B
11:16PM 35.1122 -83.6032 343° North 488 562 41,100  Level FlightAware ADS-B
11:16PM 35.1783 -83.6273 343° North 489 563 41,100  Level FlightAware ADS-B
11:17PM 35.2458 -83.6518 343° North 491 565 41,100  Level FlightAware ADS-B
11:17PM 35.3124 -83.6762 343° North 490 564 41,100 -98 Level FlightAware ADS-B
11:18PM 35.3781 -83.7002 343° North 488 562 41,000 -100 Descending FlightAware ADS-B
11:18PM 35.4432 -83.7241 343° North 487 560 41,000  Level FlightAware ADS-B
11:19PM 35.5101 -83.7488 343° North 486 559 41,000  Level FlightAware ADS-B
11:19PM 35.5763 -83.7732 343° North 488 562 41,000  Level FlightAware ADS-B
11:20PM 35.6415 -83.7972 343° North 487 560 41,000 -197 Level FlightAware ADS-B
11:20PM 35.7079 -83.8217 343° North 487 560 40,800 -581 Descending FlightAware ADS-B
11:21PM 35.7735 -83.8459 343° North 486 559 40,400 -677 Descending FlightAware ADS-B
11:22PM 35.8408 -83.8709 343° North 488 562 40,100 -632 Descending FlightAware ADS-B
11:22PM 35.8985 -83.8931 343° North 487 560 39,800 -649 Descending FlightAware ADS-B
11:22PM 35.9193 -83.9035 338° Northwest 483 556 39,700 -732 Descending FlightAware ADS-B
11:23PM 35.9808 -83.9403 334° Northwest 478 550 39,300 -677 Descending FlightAware ADS-B
11:23PM 36.0435 -83.9776 334° Northwest 478 550 39,000 -677 Descending FlightAware ADS-B
11:24PM 36.1033 -84.0129 335° Northwest 477 549 38,600 -1,065 Descending FlightAware ADS-B
11:24PM 36.1661 -84.0502 334° Northwest 470 541 37,900 -2,818 Descending FlightAware ADS-B
11:25PM 36.2330 -84.0895 335° Northwest 476 548 35,500 -4,313 Descending FlightAware ADS-B
11:25PM 36.2946 -84.1265 334° Northwest 484 557 33,300 -3,541 Descending FlightAware ADS-B
11:26PM 36.3560 -84.1627 335° Northwest 470 541 31,900 -2,710 Descending FlightAware ADS-B
11:26PM 36.4155 -84.1979 335° Northwest 469 540 30,500 -1,869 Descending FlightAware ADS-B
11:27PM 36.4749 -84.2341 334° Northwest 482 555 30,000 -500 Descending FlightAware ADS-B
11:27PM 36.5375 -84.2721 334° Northwest 505 581 30,000  Level FlightAware ADS-B
11:28PM 36.6010 -84.3105 334° Northwest 510 587 30,000 -295 Level FlightAware ADS-B
11:28PM 36.6658 -84.3491 334° Northwest 505 581 29,700 -571 Descending FlightAware ADS-B
11:29PM 36.7332 -84.3895 334° Northwest 503 579 29,400 -618 Descending FlightAware ADS-B
11:29PM 36.8092 -84.4356 334° Northwest 505 581 29,000 -783 Descending FlightAware ADS-B
11:30PM 36.8785 -84.4777 334° Northwest 504 580 28,500 -1,477 Descending FlightAware ADS-B
11:31PM 36.9434 -84.5162 335° Northwest 481 554 27,400 -2,381 Descending FlightAware ADS-B
11:31PM 37.0029 -84.5523 334° Northwest 456 525 26,000 -3,290 Descending FlightAware ADS-B
11:32PM 37.0605 -84.5879 334° Northwest 445 512 24,000 -2,571 Descending FlightAware ADS-B
11:32PM 37.1193 -84.6239 334° Northwest 443 510 23,300 -1,742 Descending FlightAware ADS-B
11:33PM 37.1740 -84.6577 334° Northwest 432 497 22,200 -2,459 Descending FlightAware ADS-B
11:33PM 37.2295 -84.6917 334° Northwest 429 494 20,800 -2,557 Descending FlightAware ADS-B
11:34PM 37.2831 -84.7245 334° Northwest 424 488 19,600 -2,200 Descending FlightAware ADS-B
11:34PM 37.3349 -84.7557 334° Northwest 409 471 18,600 -2,164 Descending FlightAware ADS-B
11:35PM 37.3880 -84.7880 334° Northwest 406 467 17,400 -2,414 Descending FlightAware
11:36PM 37.4800 -84.8460 333° Northwest 394 453 15,100 -2,250 Descending FlightAware
11:37PM 37.5780 -84.9050 334° Northwest 357 411 12,900 -2,111 Descending FlightAware
11:37PM 37.6430 -84.9470 333° Northwest 353 406 11,300 -1,974 Descending FlightAware
11:38PM 37.6810 -84.9900 318° Northwest 328 377 10,400 -857 Descending FlightAware
11:39PM 37.7350 -85.0650 312° West 330 380 10,100 -176 Descending FlightAware
11:40PM 37.7830 -85.1300 313° West 278 320 10,100  Level FlightAware
11:40PM 37.8010 -85.1550 312° West 256 295 10,100 -857 Level FlightAware
11:41PM 37.8160 -85.2020 292° West 251 289 9,300 -1,455 Descending FlightAware
11:41PM 37.8250 -85.2470 284° West 248 285 8,500 -1,406 Descending FlightAware
11:42PM 37.8340 -85.2900 285° West 246 283 7,800 -1,277 Descending FlightAware
11:42PM 37.8380 -85.3100 284° West 244 281 7,500 -1,176 Descending FlightAware
11:42PM 37.8480 -85.3600 284° West 231 266 6,800 -1,235 Descending FlightAware
11:43PM 37.8570 -85.4030 285° West 233 268 6,100 -1,179 Descending FlightAware
11:43PM 37.8630 -85.4340 284° West 233 268 5,700 -857 Descending FlightAware
11:44PM 37.8710 -85.4760 284° West 234 269 5,300 -720 Descending FlightAware
11:44PM 37.8760 -85.5010 284° West 233 268 5,100 -500 Descending FlightAware
11:45PM 37.8840 -85.5390 285° West 231 266 4,900 -522 Descending FlightAware
11:45PM 37.9080 -85.5770 309° West 220 253 4,500 -563 Descending FlightAware
11:46PM 37.9280 -85.5930 328° Northwest 216 249 4,300 -480 Descending FlightAware
11:46PM 37.9480 -85.6150 319° Northwest 212 244 4,100 -436 Descending FlightAware
11:47PM 37.9670 -85.6410 313° West 212 244 3,900 -400 Descending FlightAware
11:47PM 37.9780 -85.6550 315° West 214 246 3,800 -450 Descending FlightAware
11:47PM 37.9940 -85.6770 313° West 204 235 3,600 -414 Descending FlightAware
11:48PM 38.0240 -85.6950 335° Northwest 195 224 3,400 -632 Descending FlightAware
11:48PM 38.0430 -85.7010 346° North 178 205 3,000 -1,038 Descending FlightAware
11:49PM 38.0640 -85.7080 345° North 152 175 2,500 -900 Descending FlightAware
11:49PM 38.0840 -85.7150 345° North 133 153 2,100 -750 Descending FlightAware
11:50PM 38.0980 -85.7200 344° North 135 155 1,800 -750 Descending FlightAware
11:50PM 38.1130 -85.7240 348° North 138 159 1,500 -667 Descending FlightAware
11:51PM 38.1320 -85.7300 346° North 142 163 1,200 -720 Descending FlightAware
11:51PM 38.1440 -85.7350 342° North 145 167 900 -900 Descending FlightAware
11:51PM 38.1580 -85.7390 347° North 144 166 600 -900 Descending FlightAware
11:52PM 38.1790 -85.7460 345° North 86 99 -750 Descending FlightAware